Погода в Большом Чаусово

Россия / Курганская область     55°30′32″N   65°22′55″E
темп.,
°C
ветер,
м/с
пор.,
м/с
влажн.,
%
обл.,
%
осадки,
мм/ч
давл.,
гПа
погр.,
м
14 мая, пт
пт1423:00+18в366019 0.0 102585
02:00+16вюв22685 0.0 102521
05:00+15юв11725 0.0 102611
08:00+20юв11535 0.0 1027292
11:00+26ююз11355 0.0 10261156
14:00+28ююз23285 0.0 10252436
17:00+29юз462712 0.0 10242855
20:00+24юз34430 0.0 102336
15 мая, сб
сб1523:00+20ююз411485 0.0 1023170
02:00+18юз411505 0.0 1023195
05:00+18юз3458100 0.2 102265
08:00+23зюз344781 0.1 1022272
11:00+29з57295 0.1 10211785
14:00+30зсз672345 0.0 10202751
17:00+30з56240 0.0 10192982
20:00+25зюз474039 0.0 1018104
16 мая, вс
вс1623:00+21зюз36475 0.0 101883
02:00+19з355415 0.0 101882
05:00+18зсз3662100 0.0 101996
08:00+24зсз464768 0.0 1019441
11:00+29зсз682924 0.0 10191590
14:00+31сз8112389 0.0 10192296
17:00+31сз610215 0.0 10183317
20:00+26з22336 0.0 101812
17 мая, пн
пн1723:00+21з344324 0.0 101852
02:00+19зсз354756 0.0 101864
05:00+18з335356 0.0 101935
08:00+24з34415 0.0 1019309
11:00+30з48255 0.0 10182431
14:00+31з79225 0.0 10173643
17:00+31з682269 0.0 10163535
20:00+26з6123023 0.0 1015276
18 мая, вт
вт1823:00+21з48435 0.0 101598
02:00+19зсз354971 0.0 101572
05:00+18зсз355697 0.0 101571
08:00+23зсз364597 0.0 1015372
11:00+26сз5739100 0.0 10151410
14:00+28сз693214 0.0 10142720
17:00+28сз610264 0.0 10133100
20:00+23с36464 0.0 1013106